N395T KISP-K09

Flight info

Callsign N395T
Flight time N/A
Altitude 16000
Route BDR MALLO
Aircraft PC12/L-SDFGRWY/S

Departure

Time 2026-04-28 18:43
Airport Long Island MacArthur Airport (KISP)

Arrival

Time N/A
Airport K09
Time Latitude Longitude Altitude Speed Heading
2026-04-28 18:27 40.79825 -73.10899 91 ft 0 kts 88°
2026-04-28 18:40 40.79825 -73.10898 91 ft 1 kts 89°
2026-04-28 18:40 40.79824 -73.10882 -54 ft 3 kts 98°
2026-04-28 18:40 40.79808 -73.10855 106 ft 4 kts 125°
2026-04-28 18:40 40.79804 -73.10814 91 ft 5 kts 84°
2026-04-28 18:41 40.79804 -73.10762 91 ft 6 kts 92°
2026-04-28 18:41 40.79829 -73.10720 91 ft 8 kts
2026-04-28 18:41 40.79891 -73.10719 91 ft 10 kts
2026-04-28 18:41 40.79972 -73.10719 91 ft 13 kts 359°
2026-04-28 18:42 40.80066 -73.10720 91 ft 14 kts 359°
2026-04-28 18:42 40.80161 -73.10700 91 ft 13 kts 58°
2026-04-28 18:42 40.80108 -73.10582 90 ft 28 kts 134°
2026-04-28 18:42 40.79867 -73.10267 94 ft 69 kts 136°
2026-04-28 18:43 40.79455 -73.09712 149 ft 93 kts 135°
2026-04-28 18:43 40.78995 -73.09053 398 ft 99 kts 132°
2026-04-28 18:43 40.78705 -73.08211 642 ft 109 kts 98°
2026-04-28 18:43 40.78890 -73.07182 891 ft 124 kts 60°
2026-04-28 18:44 40.79492 -73.06316 1255 ft 131 kts 36°
2026-04-28 18:44 40.81341 -73.05921 1968 ft 150 kts 358°
2026-04-28 18:44 40.82423 -73.06106 2368 ft 163 kts 355°
2026-04-28 18:45 40.83572 -73.06321 2656 ft 170 kts 357°
2026-04-28 18:45 40.84778 -73.06540 2966 ft 176 kts 356°
2026-04-28 18:45 40.86007 -73.06771 3323 ft 180 kts 357°
2026-04-28 18:45 40.87259 -73.07006 3676 ft 183 kts 357°
2026-04-28 18:46 40.88513 -73.07242 4042 ft 185 kts 357°
2026-04-28 18:46 40.89771 -73.07480 4499 ft 178 kts 357°
2026-04-28 18:46 40.90986 -73.07710 4988 ft 174 kts 358°
2026-04-28 18:46 40.92179 -73.07935 5457 ft 171 kts 357°
2026-04-28 18:47 40.93344 -73.08156 5962 ft 169 kts 357°
2026-04-28 18:47 40.94512 -73.08375 6429 ft 168 kts 356°
2026-04-28 18:47 40.95689 -73.08595 6773 ft 174 kts 356°
2026-04-28 18:47 40.96910 -73.08823 7070 ft 179 kts 356°
2026-04-28 18:48 40.98156 -73.09058 7364 ft 184 kts 356°
2026-04-28 18:48 40.99448 -73.09301 7616 ft 188 kts 356°
2026-04-28 18:48 41.00756 -73.09547 7867 ft 191 kts 355°
2026-04-28 18:48 41.02085 -73.09798 8121 ft 194 kts 356°
2026-04-28 18:49 41.03427 -73.10052 8376 ft 195 kts 356°
2026-04-28 18:49 41.03866 -73.10135 8459 ft 196 kts 356°
2026-04-28 18:49 41.06116 -73.10560 8885 ft 197 kts 356°
2026-04-28 18:49 41.07471 -73.10817 9168 ft 196 kts 356°
2026-04-28 18:50 41.08258 -73.10966 9333 ft 196 kts 356°
2026-04-28 18:50 41.09068 -73.11119 9512 ft 196 kts 356°
2026-04-28 18:51 41.10413 -73.11374 9807 ft 195 kts 356°
2026-04-28 18:51 41.11760 -73.11629 10083 ft 195 kts 356°
2026-04-28 18:51 41.13075 -73.11879 10393 ft 192 kts 355°
2026-04-28 18:51 41.14404 -73.12131 10708 ft 189 kts 355°
2026-04-28 18:52 41.15703 -73.12381 11023 ft 189 kts 354°
2026-04-28 18:52 41.16919 -73.12989 11344 ft 190 kts 337°
2026-04-28 18:52 41.18090 -73.13795 11667 ft 189 kts 337°
2026-04-28 18:52 41.19257 -73.14583 11992 ft 188 kts 337°
2026-04-28 18:53 41.20424 -73.15360 12312 ft 188 kts 338°
2026-04-28 18:53 41.21590 -73.16137 12621 ft 187 kts 337°
2026-04-28 18:53 41.22749 -73.16911 12926 ft 188 kts 337°
2026-04-28 18:53 41.23918 -73.17693 13240 ft 187 kts 337°
2026-04-28 18:54 41.25080 -73.18470 13544 ft 188 kts 337°
2026-04-28 18:54 41.26252 -73.19253 13815 ft 189 kts 337°
2026-04-28 18:54 41.27438 -73.20046 14074 ft 192 kts 337°
2026-04-28 18:54 41.28618 -73.20836 14301 ft 193 kts 337°
2026-04-28 18:55 41.29838 -73.21654 14542 ft 193 kts 337°
2026-04-28 18:55 41.30634 -73.22187 14705 ft 193 kts 337°
2026-04-28 18:55 41.32239 -73.23263 15028 ft 193 kts 337°
2026-04-28 18:55 41.33440 -73.24069 15270 ft 193 kts 337°
2026-04-28 18:56 41.34637 -73.24872 15518 ft 193 kts 337°
2026-04-28 18:56 41.35835 -73.25675 15768 ft 192 kts 337°
2026-04-28 18:56 41.37029 -73.26477 15986 ft 194 kts 337°
2026-04-28 18:56 41.38264 -73.27304 15998 ft 204 kts 337°
2026-04-28 18:57 41.39561 -73.28173 16000 ft 212 kts 337°
2026-04-28 18:57 41.40904 -73.29076 16001 ft 219 kts 337°
2026-04-28 18:57 41.42281 -73.30003 16000 ft 224 kts 336°
2026-04-28 18:57 41.43661 -73.30933 16000 ft 227 kts 337°
2026-04-28 18:58 41.45076 -73.31886 16008 ft 229 kts 337°
2026-04-28 18:58 41.46502 -73.32847 16007 ft 230 kts 337°
2026-04-28 18:58 41.47933 -73.33811 16004 ft 231 kts 337°
2026-04-28 18:58 41.49370 -73.34780 15994 ft 231 kts 336°
2026-04-28 18:59 41.50810 -73.35751 15996 ft 232 kts 336°
2026-04-28 18:59 41.51764 -73.36396 15993 ft 232 kts 336°
2026-04-28 18:59 41.53694 -73.37699 15994 ft 233 kts 336°
2026-04-28 18:59 41.54653 -73.38347 15992 ft 233 kts 337°
2026-04-28 19:00 41.56572 -73.39644 15993 ft 233 kts 337°
2026-04-28 19:00 41.58019 -73.40623 15995 ft 233 kts 337°
2026-04-28 19:00 41.58998 -73.41286 15988 ft 233 kts 337°
2026-04-28 19:00 41.60446 -73.42265 15979 ft 233 kts 337°
2026-04-28 19:01 41.61876 -73.43234 15985 ft 233 kts 337°
2026-04-28 19:01 41.63329 -73.44218 15982 ft 234 kts 337°
2026-04-28 19:01 41.64782 -73.45204 15980 ft 234 kts 336°
2026-04-28 19:01 41.66234 -73.46188 15981 ft 234 kts 337°
2026-04-28 19:02 41.67687 -73.47175 15977 ft 234 kts 337°
2026-04-28 19:02 41.69138 -73.48160 15970 ft 234 kts 337°
2026-04-28 19:02 41.70592 -73.49148 15967 ft 234 kts 337°
2026-04-28 19:02 41.72027 -73.50123 15961 ft 234 kts 337°
2026-04-28 19:03 41.73482 -73.51112 15957 ft 234 kts 337°
2026-04-28 19:03 41.74938 -73.52103 15958 ft 235 kts 337°
2026-04-28 19:03 41.76398 -73.53097 15956 ft 235 kts 337°
2026-04-28 19:03 41.77854 -73.54088 15952 ft 236 kts 334°
2026-04-28 19:04 41.79330 -73.55096 15942 ft 239 kts 333°
2026-04-28 19:04 41.80819 -73.56111 15945 ft 240 kts 333°
2026-04-28 19:04 41.82317 -73.57134 15943 ft 242 kts 333°
2026-04-28 19:04 41.83801 -73.58146 15944 ft 243 kts 333°
2026-04-28 19:05 41.85312 -73.59177 15933 ft 243 kts 333°
2026-04-28 19:05 41.86822 -73.60209 15937 ft 244 kts 333°
2026-04-28 19:05 41.88334 -73.61242 15935 ft 243 kts 333°
2026-04-28 19:05 41.89847 -73.62277 15934 ft 244 kts 333°
2026-04-28 19:06 41.91356 -73.63310 15934 ft 244 kts 333°
2026-04-28 19:06 41.92868 -73.64346 15927 ft 245 kts 333°
2026-04-28 19:06 41.94391 -73.65389 15926 ft 245 kts 333°
2026-04-28 19:06 41.95910 -73.66429 15932 ft 245 kts 333°
2026-04-28 19:07 41.97435 -73.67475 15926 ft 245 kts 333°
2026-04-28 19:07 41.98933 -73.68503 15924 ft 245 kts 333°
2026-04-28 19:07 42.00452 -73.69546 15922 ft 245 kts 333°
2026-04-28 19:07 42.01974 -73.70592 15920 ft 246 kts 333°
2026-04-28 19:08 42.03504 -73.71643 15924 ft 246 kts 333°
2026-04-28 19:08 42.05024 -73.72689 15929 ft 245 kts 333°
2026-04-28 19:08 42.06548 -73.73737 15919 ft 245 kts 333°
2026-04-28 19:08 42.08067 -73.74783 15922 ft 246 kts 333°
2026-04-28 19:09 42.09592 -73.75833 15922 ft 246 kts 333°
2026-04-28 19:09 42.11116 -73.76883 15929 ft 246 kts 333°
2026-04-28 19:09 42.12639 -73.77934 15921 ft 246 kts 333°
2026-04-28 19:09 42.14170 -73.78990 15930 ft 247 kts 333°
2026-04-28 19:10 42.15703 -73.80049 15927 ft 248 kts 333°
2026-04-28 19:10 42.17220 -73.81096 15925 ft 248 kts 333°
2026-04-28 19:10 42.18753 -73.82155 15930 ft 248 kts 333°
2026-04-28 19:10 42.20294 -73.83221 15936 ft 249 kts 332°
2026-04-28 19:11 42.21833 -73.84286 15938 ft 249 kts 333°
2026-04-28 19:11 42.23374 -73.85353 15936 ft 249 kts 332°
2026-04-28 19:11 42.24920 -73.86422 15935 ft 249 kts 332°
2026-04-28 19:11 42.26461 -73.87491 15938 ft 249 kts 332°
2026-04-28 19:12 42.27998 -73.88556 15937 ft 250 kts 332°
2026-04-28 19:12 42.29549 -73.89632 15937 ft 249 kts 332°
2026-04-28 19:12 42.31092 -73.90704 15923 ft 249 kts 332°
2026-04-28 19:12 42.32636 -73.91776 15928 ft 249 kts 332°
2026-04-28 19:13 42.34174 -73.92844 15925 ft 249 kts 332°
2026-04-28 19:13 42.35713 -73.93914 15931 ft 248 kts 332°
2026-04-28 19:13 42.37255 -73.94987 15834 ft 252 kts 332°
2026-04-28 19:13 42.38808 -73.96068 15642 ft 258 kts 332°
2026-04-28 19:14 42.40421 -73.97191 15449 ft 261 kts 332°
2026-04-28 19:14 42.42048 -73.98324 15255 ft 265 kts 332°
2026-04-28 19:14 42.43694 -73.99472 15060 ft 266 kts 332°
2026-04-28 19:14 42.45348 -74.00627 14848 ft 268 kts 334°
2026-04-28 19:15 42.47007 -74.01785 14671 ft 268 kts 334°
2026-04-28 19:15 42.48666 -74.02944 14466 ft 269 kts 334°
2026-04-28 19:15 42.50331 -74.04106 14274 ft 269 kts 334°
2026-04-28 19:15 42.51431 -74.04876 14145 ft 269 kts 334°
2026-04-28 19:16 42.53658 -74.06434 13891 ft 268 kts 334°
2026-04-28 19:16 42.55292 -74.07579 13681 ft 268 kts 334°
2026-04-28 19:16 42.56954 -74.08742 13465 ft 267 kts 334°
2026-04-28 19:16 42.58606 -74.09900 13261 ft 267 kts 333°
2026-04-28 19:17 42.60253 -74.11057 13041 ft 266 kts 334°
2026-04-28 19:17 42.61896 -74.12210 12837 ft 266 kts 334°
2026-04-28 19:17 42.63527 -74.13355 12637 ft 266 kts 334°
2026-04-28 19:17 42.65195 -74.14527 12423 ft 266 kts 333°
2026-04-28 19:18 42.66841 -74.15684 12218 ft 266 kts 334°
2026-04-28 19:18 42.68473 -74.16832 12017 ft 268 kts 333°
2026-04-28 19:18 42.70116 -74.17990 11928 ft 263 kts 333°
2026-04-28 19:18 42.71725 -74.19125 11931 ft 258 kts 333°
2026-04-28 19:19 42.73334 -74.20258 11730 ft 262 kts 333°
2026-04-28 19:19 42.74962 -74.21405 11530 ft 264 kts 333°
2026-04-28 19:19 42.76604 -74.22564 11251 ft 268 kts 333°
2026-04-28 19:19 42.78262 -74.23735 11034 ft 269 kts 333°
2026-04-28 19:20 42.79920 -74.24907 10811 ft 267 kts 333°
2026-04-28 19:20 42.81561 -74.26066 10590 ft 266 kts 333°
2026-04-28 19:20 42.83208 -74.27231 10370 ft 265 kts 333°
2026-04-28 19:20 42.84850 -74.28394 10154 ft 266 kts 333°
2026-04-28 19:21 42.86502 -74.29564 9932 ft 267 kts 333°
2026-04-28 19:21 42.88124 -74.30713 9698 ft 266 kts 333°
2026-04-28 19:21 42.89766 -74.31877 9455 ft 266 kts 332°
2026-04-28 19:21 42.91408 -74.33042 9223 ft 265 kts 332°
2026-04-28 19:22 42.93047 -74.34206 8984 ft 266 kts 332°
2026-04-28 19:22 42.94135 -74.34980 8828 ft 266 kts 332°
2026-04-28 19:22 42.96330 -74.36539 8516 ft 265 kts 332°
2026-04-28 19:22 42.97969 -74.37703 8295 ft 265 kts 332°
2026-04-28 19:23 42.99598 -74.38864 8059 ft 263 kts 332°
2026-04-28 19:23 43.01200 -74.40004 7839 ft 262 kts 332°
2026-04-28 19:23 43.02838 -74.41172 7610 ft 262 kts 332°
2026-04-28 19:23 43.04423 -74.42301 7402 ft 262 kts 332°
2026-04-28 19:24 43.06048 -74.43460 7170 ft 262 kts 332°
2026-04-28 19:24 43.07663 -74.44612 6948 ft 261 kts 332°
2026-04-28 19:24 43.09277 -74.45765 6728 ft 261 kts 331°
2026-04-28 19:24 43.10885 -74.46914 6530 ft 260 kts 331°
2026-04-28 19:25 43.12483 -74.48059 6373 ft 259 kts 332°
2026-04-28 19:25 43.14076 -74.49199 6222 ft 257 kts 331°
2026-04-28 19:25 43.15671 -74.50340 6059 ft 258 kts 331°
2026-04-28 19:25 43.17098 -74.51779 5913 ft 253 kts 315°
2026-04-28 19:26 43.18378 -74.53431 5758 ft 252 kts 314°
2026-04-28 19:26 43.19659 -74.55074 5602 ft 252 kts 315°
2026-04-28 19:26 43.20944 -74.56692 5457 ft 251 kts 315°
2026-04-28 19:26 43.22232 -74.58315 5300 ft 251 kts 315°
2026-04-28 19:27 43.23506 -74.59931 5164 ft 249 kts 315°
2026-04-28 19:27 43.24780 -74.61552 5006 ft 249 kts 316°
2026-04-28 19:27 43.26041 -74.63117 4843 ft 235 kts 319°
2026-04-28 19:27 43.27420 -74.64094 4674 ft 216 kts 343°
2026-04-28 19:28 43.28882 -74.64274 4515 ft 211 kts
2026-04-28 19:28 43.30252 -74.63736 4349 ft 203 kts 29°
2026-04-28 19:28 43.31435 -74.62794 4197 ft 188 kts 32°
2026-04-28 19:28 43.32514 -74.61920 4061 ft 177 kts 32°
2026-04-28 19:29 43.33581 -74.61053 3915 ft 177 kts 32°
2026-04-28 19:29 43.34295 -74.60474 3846 ft 182 kts 33°
2026-04-28 19:29 43.35772 -74.59274 3679 ft 188 kts 33°
2026-04-28 19:29 43.36878 -74.58375 3559 ft 183 kts 33°
2026-04-28 19:30 43.37957 -74.57498 3413 ft 176 kts 33°
2026-04-28 19:30 43.38992 -74.56659 3343 ft 170 kts 34°
2026-04-28 19:30 43.39494 -74.56244 3301 ft 166 kts 35°
2026-04-28 19:30 43.40419 -74.55351 3267 ft 162 kts 43°
2026-04-28 19:31 43.41255 -74.54277 3299 ft 166 kts 47°
2026-04-28 19:31 43.42073 -74.53151 3219 ft 164 kts 50°
2026-04-28 19:31 43.42817 -74.52067 3106 ft 142 kts 52°
2026-04-28 19:31 43.43452 -74.51115 2898 ft 132 kts 54°
2026-04-28 19:32 43.44071 -74.50191 2681 ft 128 kts 49°
2026-04-28 19:32 43.44709 -74.49392 2591 ft 121 kts 44°
2026-04-28 19:32 43.45368 -74.48825 2535 ft 110 kts 15°
2026-04-28 19:32 43.46121 -74.48907 2372 ft 109 kts 323°
2026-04-28 19:33 43.46555 -74.49633 2265 ft 94 kts 274°
2026-04-28 19:33 43.46453 -74.50472 2006 ft 88 kts 229°
2026-04-28 19:33 43.45981 -74.50973 1801 ft 85 kts 206°
2026-04-28 19:33 43.45514 -74.51351 1698 ft 72 kts 207°
2026-04-28 19:34 43.45179 -74.51621 1699 ft 40 kts 210°
2026-04-28 19:34 43.45087 -74.51697 1699 ft 7 kts 198°
2026-04-28 19:34 43.45062 -74.51674 1698 ft 5 kts 117°
2026-04-28 19:34 43.45053 -74.51622 1696 ft 7 kts 47°
2026-04-28 19:35 43.45083 -74.51575 1697 ft 8 kts 98°
2026-04-28 19:35 43.45046 -74.51574 1696 ft 8 kts 273°
2026-04-28 19:35 43.45050 -74.51589 1697 ft 0 kts 293°